Regional Weather Roundup
Issued by NWS Charleston, WV

Home | Current Version | Previous Version | Text Only | Print | Product List | Glossary Off
Versions: 1 2 3 4 5 6 7 8 9 10 11 12 13 14 15 16 17 18 19 20 21 22 23 24 25 26 27

000
ASUS41 KRLX 301510
RWRRLX
West Virginia Regional Weather Roundup
National Weather Service Charleston WV
1100 AM EDT SUN APR 30 2017

Note: "fair" indicates few or no clouds below 12,000 feet with no
significant weather and/or obstructions to visibility.

WVZ003-301600-
Northern Panhandle of West Virginia

CITY           SKY/WX    TMP DP  RH WIND       PRES   REMARKS
WHEELING       SUNNY     77  64  64 S13G20    30.02F
$$

WVZ009-301600-
Northwest West Virginia

CITY           SKY/WX    TMP DP  RH WIND       PRES   REMARKS
PARKERSBURG    SUNNY     81  64  56 S13       30.04S
$$

WVZ006-301600-
Western West Virginia

CITY           SKY/WX    TMP DP  RH WIND       PRES   REMARKS
HUNTINGTON     CLOUDY    82  62  50 S9G17     30.01S
$$

WVZ015-301600-
West Central West Virginia

CITY           SKY/WX    TMP DP  RH WIND       PRES   REMARKS
CHARLESTON     MOSUNNY   83  62  49 S10       30.04S
$$

WVZ022-031-301600-
North Central West Virginia

CITY           SKY/WX    TMP DP  RH WIND       PRES   REMARKS
CLARKSBURG     SUNNY     82  62  50 SW15      30.06S
MORGANTOWN     MOSUNNY   81  60  48 S6        30.07S
$$

WVZ025-035-042-045-301600-
Southern West Virginia

CITY           SKY/WX    TMP DP  RH WIND       PRES   REMARKS
BECKLEY        MOSUNNY   77  60  55 S10G17    30.16R
LOGAN          NOT AVBL
BLUEFIELD      CLOUDY    72  57  59 VRB7      30.18R
LEWISBURG      SUNNY     74  62  64 S3        30.17S
$$

WVZ047-301600-
Northern Mountains of West Virginia

CITY           SKY/WX    TMP DP  RH WIND       PRES   REMARKS
ELKINS         MOSUNNY   79  59  50 S7        30.12S
$$

WVZ052-301600-
Eastern Panhandle of West Virginia

CITY           SKY/WX    TMP DP  RH WIND       PRES   REMARKS
MARTINSBURG    CLOUDY    70  60  70 N6        30.11F
PETERSBURG     SUNNY     74  66  75 CALM      30.11F
$$




USA.gov is the U.S. government's official web portal to all federal, state and local government web resources and services.